This is the latest recevied weather packets stored in our database for station/object EA6MW-10. If no packets are shown the sender has not sent any weather packets the latest 10 day(s).
| Time | Temp. | Humidity | Pressure | Rain* | Wind** | Luminosity | Snow |
|---|---|---|---|---|---|---|---|
| 1777596730 | 14.44° C | 95% | 1019 hPa | - | - | - | - |
| 1777595830 | 15° C | 94% | 1019 hPa | - | - | - | - |
| 1777594929 | 15° C | 96% | 1019 hPa | - | - | - | - |
| 1777594029 | 15° C | 95% | 1018.8 hPa | - | - | - | - |
| 1777593129 | 15.56° C | 91% | 1018.6 hPa | - | - | - | - |
| 1777592229 | 15° C | 94% | 1018.7 hPa | - | - | - | - |
| 1777591328 | 15° C | 96% | 1018.6 hPa | - | - | - | - |
| 1777590428 | 14.44° C | 95% | 1018.6 hPa | - | - | - | - |
| 1777589528 | 15° C | 96% | 1018.6 hPa | - | - | - | - |
| 1777588627 | 14.44° C | 96% | 1018.6 hPa | - | - | - | - |
| 1777587727 | 15° C | 96% | 1018.5 hPa | - | - | - | - |
| 1777586827 | 15° C | 95% | 1018.3 hPa | - | - | - | - |
| 1777585927 | 15° C | 95% | 1018.2 hPa | - | - | - | - |
| 1777585026 | 15° C | 95% | 1018.2 hPa | - | - | - | - |
| 1777584126 | 15° C | 95% | 1018.2 hPa | - | - | - | - |
| 1777583226 | 15° C | 94% | 1018 hPa | - | - | - | - |
| 1777582325 | 15.56° C | 94% | 1017.8 hPa | - | - | - | - |
| 1777581425 | 15.56° C | 94% | 1017.6 hPa | - | - | - | - |
| 1777580525 | 15.56° C | 94% | 1017.6 hPa | - | - | - | - |
| 1777579625 | 15.56° C | 94% | 1017.2 hPa | - | - | - | - |
| 1777578725 | 16.11° C | 93% | 1017.1 hPa | - | - | - | - |
| 1777577824 | 16.11° C | 92% | 1017 hPa | - | - | - | - |
| 1777576924 | 16.67° C | 91% | 1017 hPa | - | - | - | - |
| 1777576024 | 16.67° C | 90% | 1016.8 hPa | - | - | - | - |
| 1777575124 | 17.22° C | 89% | 1016.6 hPa | - | - | - | - |
* Rain since midnight (hover to see other rain measurements)
** Current wind speed in m/s (hover to see current wind gust speed)